"startDT [UTC]","vpos","CH4 [ppm]","stdev(CH4) [ppm]","CO2 [ppm]","stdev(CO2) [ppm]","H2O [ppm]","stdev(H2O)","p_LGR [torr]","T_LGR [C]","mt1_LGR [us]","mt2_LGR [us]","T_ECpre [C]","T_EC1 [C]","T_EC2 [C]","p_inlet [hPa]","p_in [hPa]","p_out [hPa]","T_inlet [C]","RH_inlet [%]","dwpt_inlet [C]","T_vent [C]","RH_vent [%]","dwpt_vent [C]","flow_vent [l min-1]","flow_inlet [l min-1]","dwpt_sample [C]","T_room [C]"
2012-08-09 00:00:00,0.0,1.8972,0.0011,380.29,0.31,249.0,28.8,137.98,34.97,24.65,36.40,0.96,6.55,-25.98,-51,563,-936,30.0,21.4,5.5,29.9,1.2,-30.3,5.73,2.36,-26.2,33.3
2012-08-09 00:01:00,0.0,1.8997,0.0019,379.62,0.41,245.3,25.6,137.98,34.97,24.65,36.40,0.95,7.08,-25.97,-51,563,-936,30.0,22.0,5.9,29.9,1.2,-30.4,5.73,2.36,-26.2,33.2
2012-08-09 00:02:00,0.0,1.9050,0.0014,379.07,0.28,253.4,33.3,137.98,34.97,24.65,36.40,0.95,7.58,-25.95,-51,563,-935,30.0,22.1,6.0,29.9,1.1,-30.5,5.73,2.35,-26.2,33.2
2012-08-09 00:03:00,0.0,1.9034,0.0010,379.17,0.32,250.5,28.2,137.98,34.97,24.65,36.40,0.95,8.03,-25.94,-51,563,-936,30.0,22.0,5.9,29.9,1.1,-30.5,5.73,2.33,-26.2,33.2
2012-08-09 00:04:00,0.0,1.9019,0.0021,379.64,0.52,248.3,29.4,137.98,34.97,24.65,36.40,0.97,8.46,-25.93,-51,563,-935,30.0,21.3,5.4,29.9,1.1,-30.6,5.73,2.34,-26.2,33.2
2012-08-09 00:05:00,0.0,1.8975,0.0013,380.41,0.39,251.7,26.9,137.98,34.97,24.65,36.40,0.96,8.87,-25.92,-51,563,-936,30.0,21.1,5.4,29.9,1.1,-30.6,5.73,2.36,-26.2,33.2
2012-08-09 00:06:00,0.0,1.9002,0.0011,380.02,0.31,251.3,27.1,137.98,34.96,24.65,36.40,0.96,9.26,-25.91,-51,563,-935,30.0,21.2,5.4,29.9,1.1,-30.7,5.73,2.36,-26.2,33.2
2012-08-09 00:07:00,0.0,1.9019,0.0010,379.56,0.31,245.0,25.1,137.98,34.96,24.65,36.40,0.95,9.64,-25.90,-51,563,-935,30.0,21.4,5.5,29.9,1.1,-30.5,5.73,2.34,-26.2,33.2
2012-08-09 00:08:00,0.0,1.8999,0.0013,380.00,0.30,250.5,27.7,137.98,34.96,24.65,36.39,0.97,10.01,-25.88,-51,563,-936,30.0,21.1,5.3,29.9,1.2,-30.4,5.73,2.33,-26.2,33.3
2012-08-09 00:09:00,0.0,1.8968,0.0013,380.49,0.38,252.0,28.2,137.98,34.96,24.65,36.40,0.98,10.36,-25.88,-51,563,-935,30.0,20.8,5.1,29.9,1.1,-30.5,5.73,2.34,-26.2,33.2
2012-08-09 00:10:00,0.0,1.8953,0.0008,380.79,0.26,247.0,32.8,137.98,34.96,24.65,36.39,0.96,10.71,-25.86,-51,563,-936,30.0,20.8,5.1,29.9,1.1,-30.5,5.73,2.35,-26.2,33.2
2012-08-09 00:11:00,0.0,1.8967,0.0012,380.16,0.31,250.6,29.4,137.98,34.96,24.65,36.40,0.97,11.05,-25.85,-51,563,-935,30.0,21.3,5.4,29.9,1.1,-30.6,5.73,2.36,-26.2,33.2
2012-08-09 00:12:00,0.0,1.8996,0.0018,379.66,0.42,245.3,27.9,137.98,34.96,24.65,36.40,0.96,11.37,-25.84,-51,563,-936,30.0,21.8,5.8,29.9,1.2,-30.4,5.73,2.34,-26.2,33.2
2012-08-09 00:13:00,0.0,1.8980,0.0024,379.96,0.65,249.2,27.8,137.98,34.96,24.65,36.39,0.97,11.67,-25.83,-51,563,-936,30.0,21.0,5.3,29.9,1.1,-30.5,5.73,2.33,-26.2,33.2
2012-08-09 00:14:00,0.0,1.8977,0.0014,379.97,0.37,252.2,30.7,137.98,34.96,24.65,36.40,0.96,11.97,-25.82,-51,563,-935,30.0,21.4,5.5,29.9,1.1,-30.5,5.73,2.34,-26.2,33.2
2012-08-09 00:15:00,0.0,1.8959,0.0010,380.44,0.31,239.3,29.4,137.98,34.95,24.65,36.39,0.97,12.26,-25.81,-51,563,-936,30.0,21.2,5.4,29.9,1.1,-30.5,5.73,2.36,-26.2,33.2
2012-08-09 00:16:00,0.0,1.8956,0.0011,380.12,0.43,254.1,27.1,137.98,34.95,24.65,36.40,0.97,12.53,-25.81,-51,563,-935,30.0,21.3,5.5,29.9,1.1,-30.6,5.73,2.36,-26.2,33.3
2012-08-09 00:17:00,0.0,1.8962,0.0011,380.25,0.23,245.6,27.3,137.98,34.95,24.65,36.40,0.96,12.80,-25.79,-51,563,-936,30.0,21.1,5.3,29.9,1.2,-30.4,5.73,2.34,-26.2,33.2
2012-08-09 00:18:00,0.0,1.8974,0.0010,380.04,0.26,244.2,23.3,137.98,34.95,24.65,36.40,0.97,13.06,-25.79,-51,563,-935,30.0,21.1,5.3,29.9,1.1,-30.6,5.73,2.33,-26.2,33.3
2012-08-09 00:19:00,0.0,1.8965,0.0010,380.30,0.28,250.8,26.6,137.98,34.95,24.65,36.40,0.95,13.30,-25.78,-51,563,-936,30.0,21.0,5.3,29.9,1.1,-30.5,5.73,2.35,-26.2,33.3
2012-08-09 00:20:00,0.0,1.8969,0.0010,380.02,0.28,245.0,29.4,137.98,34.95,24.65,36.40,0.97,13.54,-25.77,-51,563,-936,30.0,21.2,5.4,29.9,1.1,-30.5,5.73,2.36,-26.2,33.3
2012-08-09 00:21:00,0.0,1.8957,0.0010,380.43,0.28,255.7,27.0,137.98,34.95,24.65,36.40,0.96,13.77,-25.77,-51,563,-935,30.0,21.0,5.3,29.9,1.1,-30.7,5.73,2.35,-26.2,33.4
2012-08-09 00:22:00,0.0,1.8948,0.0010,380.72,0.32,249.2,28.7,137.98,34.95,24.65,36.39,0.96,13.97,-25.76,-51,563,-936,30.0,20.7,5.1,29.9,1.1,-30.4,5.73,2.33,-26.2,33.4
2012-08-09 00:23:00,0.0,1.8944,0.0010,380.83,0.36,248.5,27.6,137.98,34.94,24.65,36.39,0.96,14.19,-25.75,-51,563,-935,30.0,20.5,4.9,29.9,1.2,-30.4,5.73,2.33,-26.2,33.4
2012-08-09 00:24:00,0.0,1.8948,0.0016,380.57,0.41,248.2,29.4,137.98,34.94,24.65,36.40,0.95,14.39,-25.75,-51,563,-936,30.0,21.0,5.3,29.9,1.1,-30.6,5.73,2.35,-26.2,33.3
2012-08-09 00:25:00,0.0,1.8970,0.0011,380.42,0.31,252.4,28.5,137.98,34.94,24.64,36.40,0.95,14.57,-25.74,-51,563,-935,30.0,20.7,5.1,29.9,1.1,-30.5,5.73,2.36,-26.2,33.3
2012-08-09 00:26:00,0.0,1.8952,0.0013,380.53,0.30,249.4,27.5,137.98,34.94,24.65,36.40,0.96,14.76,-25.73,-51,563,-936,30.0,20.9,5.2,29.9,1.2,-30.4,5.73,2.35,-26.2,33.3
2012-08-09 00:27:00,0.0,1.8945,0.0010,380.57,0.27,250.8,24.6,137.98,34.94,24.65,36.40,0.95,14.93,-25.73,-51,563,-935,30.0,20.8,5.1,30.0,1.1,-30.5,5.73,2.33,-26.2,33.3
2012-08-09 00:28:00,0.0,1.8955,0.0012,380.59,0.27,247.8,24.9,137.98,34.94,24.65,36.40,0.96,15.10,-25.72,-51,563,-935,30.0,20.6,5.0,30.0,1.1,-30.5,5.73,2.33,-26.2,33.3
2012-08-09 00:29:00,0.0,1.8962,0.0009,380.47,0.30,255.4,30.3,137.98,34.94,24.65,36.39,0.96,15.26,-25.72,-51,563,-936,30.0,21.1,5.3,30.0,1.1,-30.4,5.73,2.35,-26.2,33.2
2012-08-09 00:30:00,0.0,1.8954,0.0012,380.52,0.23,248.6,28.3,137.98,34.95,24.65,36.40,0.95,15.42,-25.71,-51,563,-935,30.0,21.0,5.3,30.0,1.1,-30.5,5.73,2.36,-26.2,33.2
2012-08-09 00:31:00,0.0,1.8965,0.0011,380.18,0.37,249.0,27.5,137.98,34.95,24.65,36.39,0.96,15.56,-25.70,-51,563,-936,30.0,21.3,5.5,30.0,1.1,-30.5,5.73,2.34,-26.2,33.3
2012-08-09 00:32:00,0.0,1.8957,0.0013,380.35,0.30,252.5,32.2,137.98,34.94,24.65,36.40,0.96,15.70,-25.70,-51,563,-935,30.0,21.0,5.3,29.9,1.1,-30.5,5.73,2.33,-26.2,33.3
2012-08-09 00:33:00,0.0,1.8945,0.0010,380.78,0.28,247.3,29.7,137.98,34.94,24.65,36.40,0.96,15.84,-25.69,-51,563,-936,30.0,20.7,5.1,30.0,1.1,-30.5,5.73,2.34,-26.2,33.3
2012-08-09 00:34:00,0.0,1.8949,0.0011,380.50,0.33,257.6,31.6,137.98,34.94,24.65,36.40,0.97,15.97,-25.68,-51,563,-936,30.0,21.0,5.3,30.0,1.1,-30.6,5.73,2.35,-26.2,33.3
2012-08-09 00:35:00,0.0,1.8960,0.0010,380.09,0.34,248.3,27.8,137.98,34.94,24.65,36.40,0.96,16.09,-25.68,-51,563,-935,30.0,21.2,5.4,30.0,1.1,-30.4,5.73,2.35,-26.2,33.3
2012-08-09 00:36:00,0.0,1.8951,0.0013,380.69,0.28,249.8,28.9,137.98,34.94,24.65,36.40,0.97,16.21,-25.67,-51,563,-936,30.0,20.8,5.2,30.0,1.1,-30.6,5.73,2.34,-26.2,33.3
2012-08-09 00:37:00,0.0,1.8979,0.0010,379.90,0.28,255.1,27.8,137.98,34.95,24.65,36.40,0.97,16.32,-25.67,-52,563,-935,30.0,21.5,5.6,30.0,1.1,-30.6,5.73,2.33,-26.2,33.4
2012-08-09 00:38:00,0.0,1.8969,0.0009,379.79,0.31,249.5,28.4,137.98,34.95,24.65,36.40,0.96,16.43,-25.66,-52,563,-936,30.0,21.6,5.7,30.0,1.1,-30.5,5.73,2.35,-26.2,33.4
2012-08-09 00:39:00,0.0,1.8970,0.0009,379.89,0.41,258.1,29.3,137.98,34.95,24.65,36.40,0.97,16.54,-25.66,-51,563,-935,30.1,21.6,5.7,30.0,1.1,-30.5,5.73,2.35,-26.2,33.4
2012-08-09 00:40:00,1.0,1.8864,0.0070,376.29,2.40,246.0,25.2,137.98,34.94,24.65,36.40,0.96,16.64,-25.65,-51,572,-936,30.1,21.9,5.9,29.9,1.2,-30.3,5.73,2.34,-26.2,33.4
2012-08-09 00:41:00,1.0,1.8793,0.0012,373.77,0.30,247.9,33.2,137.98,34.94,24.65,36.40,0.97,16.73,-25.64,-51,569,-935,30.1,21.4,5.6,30.0,1.1,-30.4,5.73,2.33,-26.2,33.4
2012-08-09 00:42:00,1.0,1.8790,0.0009,373.89,0.29,252.0,28.5,137.98,34.95,24.65,36.41,0.99,16.82,-25.64,-51,568,-936,30.1,21.6,5.8,30.0,1.1,-30.6,5.73,2.33,-26.2,33.4
2012-08-09 00:43:00,1.0,1.8786,0.0008,373.84,0.30,251.9,30.3,137.98,34.95,24.65,36.40,0.98,16.91,-25.63,-51,568,-936,30.1,21.8,5.8,30.0,1.2,-30.4,5.73,2.34,-26.2,33.4
2012-08-09 00:44:00,1.0,1.8793,0.0007,373.79,0.30,254.9,25.9,137.98,34.95,24.64,36.41,0.98,16.99,-25.63,-52,568,-936,30.1,22.1,6.1,30.0,1.2,-30.4,5.73,2.35,-26.2,33.4
2012-08-09 00:45:00,0.0,1.8890,0.0068,377.37,2.47,252.7,32.0,137.98,34.95,24.65,36.41,0.96,17.08,-25.62,-52,563,-936,30.1,21.6,5.8,30.0,1.1,-30.5,5.73,2.35,-26.2,33.3
2012-08-09 00:46:00,0.0,1.8975,0.0008,379.59,0.25,250.2,27.5,137.98,34.95,24.65,36.40,0.97,17.15,-25.62,-51,563,-935,30.1,21.9,5.9,30.0,1.2,-30.4,5.73,2.33,-26.2,33.3
2012-08-09 00:47:00,0.0,1.8979,0.0013,379.80,0.33,243.7,27.9,137.98,34.95,24.65,36.40,0.98,17.22,-25.62,-52,563,-936,30.1,21.7,5.8,30.0,1.1,-30.4,5.73,2.34,-26.3,33.4
2012-08-09 00:48:00,0.0,1.8946,0.0010,380.36,0.35,244.1,32.2,137.98,34.95,24.65,36.40,0.97,17.30,-25.61,-52,563,-935,30.1,21.6,5.8,30.0,1.1,-30.5,5.73,2.36,-26.3,33.3
2012-08-09 00:49:00,0.0,1.8961,0.0011,379.92,0.28,238.7,34.6,137.98,34.95,24.65,36.40,0.97,17.36,-25.61,-52,563,-936,30.1,21.8,6.0,30.0,1.1,-30.4,5.73,2.36,-26.4,33.4
2012-08-09 00:50:00,0.0,1.8958,0.0012,380.09,0.33,243.5,31.2,137.98,34.95,24.65,36.40,0.96,17.43,-25.61,-52,563,-935,30.1,21.8,5.9,30.0,1.1,-30.4,5.73,2.34,-26.4,33.4
2012-08-09 00:51:00,0.0,1.8971,0.0009,379.66,0.28,245.1,28.0,137.98,34.95,24.65,36.40,0.96,17.49,-25.60,-52,563,-936,30.1,22.1,6.1,30.0,1.1,-30.6,5.73,2.33,-26.5,33.3
2012-08-09 00:52:00,0.0,1.8975,0.0010,379.80,0.28,230.6,27.8,137.98,34.96,24.65,36.40,0.96,17.55,-25.60,-52,563,-935,30.1,21.6,5.8,30.0,1.1,-30.4,5.73,2.35,-26.5,33.4
2012-08-09 00:53:00,0.0,1.8974,0.0011,379.56,0.42,234.8,27.5,137.98,34.96,24.65,36.40,0.96,17.61,-25.60,-52,563,-936,30.1,21.3,5.6,30.1,1.1,-30.4,5.73,2.36,-26.5,33.4
2012-08-09 00:54:00,0.0,1.8929,0.0011,380.89,0.34,241.4,30.1,137.98,34.96,24.65,36.40,0.97,17.66,-25.59,-52,563,-936,30.1,20.0,4.7,30.1,1.1,-30.6,5.73,2.34,-26.5,33.4
2012-08-09 00:55:00,0.0,1.8932,0.0014,380.83,0.41,234.9,31.5,137.98,34.96,24.65,36.40,0.96,17.72,-25.59,-52,563,-936,30.2,20.4,5.0,30.1,1.1,-30.5,5.73,2.33,-26.5,33.3
2012-08-09 00:56:00,0.0,1.8944,0.0010,380.52,0.26,239.5,25.5,137.98,34.96,24.65,36.40,0.96,17.76,-25.58,-52,564,-936,30.2,20.6,5.1,30.1,1.1,-30.4,5.73,2.33,-26.5,33.4
2012-08-09 00:57:00,0.0,1.8944,0.0007,380.37,0.30,238.6,29.4,137.98,34.96,24.65,36.40,0.97,17.81,-25.57,-52,563,-935,30.2,20.7,5.3,30.1,1.1,-30.5,5.73,2.35,-26.5,33.4
2012-08-09 00:58:00,0.0,1.8923,0.0015,380.92,0.35,237.0,29.8,137.98,34.96,24.65,36.40,0.97,17.86,-25.57,-52,563,-936,30.1,19.6,4.4,30.1,1.1,-30.5,5.73,2.35,-26.5,33.5
2012-08-09 00:59:00,0.0,1.8905,0.0009,381.19,0.30,241.0,27.6,137.98,34.96,24.65,36.40,0.96,17.91,-25.57,-52,564,-935,30.2,19.9,4.7,30.1,1.2,-30.3,5.73,2.33,-26.5,33.5
2012-08-09 01:00:00,0.0,1.8921,0.0012,380.85,0.29,231.9,27.7,137.98,34.96,24.65,36.40,0.97,17.95,-25.56,-52,563,-936,30.2,19.9,4.7,30.1,1.1,-30.4,5.73,2.33,-26.5,33.5
2012-08-09 01:01:00,0.0,1.8919,0.0010,381.03,0.36,233.9,23.6,137.98,34.96,24.65,36.40,0.97,17.99,-25.56,-52,564,-935,30.2,20.2,4.8,30.1,1.1,-30.4,5.73,2.34,-26.6,33.4
2012-08-09 01:02:00,0.0,1.8932,0.0009,380.62,0.32,235.6,24.1,137.98,34.96,24.65,36.40,0.98,18.03,-25.56,-52,564,-936,30.2,20.1,4.8,30.1,1.1,-30.6,5.73,2.35,-26.6,33.5
2012-08-09 01:03:00,0.0,1.8921,0.0009,381.11,0.37,234.5,24.4,137.98,34.96,24.65,36.40,0.98,18.06,-25.56,-52,564,-935,30.2,19.7,4.5,30.1,1.2,-30.3,5.73,2.34,-26.6,33.5
2012-08-09 01:04:00,0.0,1.8921,0.0008,380.88,0.28,230.9,29.0,137.98,34.96,24.65,36.40,0.95,18.10,-25.56,-52,563,-936,30.2,20.2,4.8,30.1,1.1,-30.6,5.73,2.33,-26.6,33.5
2012-08-09 01:05:00,0.0,1.8925,0.0010,380.58,0.24,233.9,28.1,137.98,34.96,24.65,36.40,0.98,18.13,-25.56,-52,564,-935,30.2,20.7,5.2,30.1,1.1,-30.7,5.73,2.33,-26.6,33.5
2012-08-09 01:06:00,0.0,1.8929,0.0010,380.38,0.28,231.3,31.0,137.98,34.96,24.65,36.39,0.98,18.17,-25.55,-52,564,-936,30.2,21.0,5.4,30.1,1.1,-30.7,5.73,2.35,-26.6,33.4
2012-08-09 01:07:00,0.0,1.8914,0.0013,380.85,0.53,233.6,29.8,137.98,34.96,24.64,36.40,0.98,18.20,-25.55,-52,564,-935,30.2,19.7,4.5,30.1,1.1,-30.8,5.73,2.35,-26.5,33.5
2012-08-09 01:08:00,0.0,1.8912,0.0011,380.99,0.35,239.0,31.7,137.98,34.97,24.65,36.40,0.98,18.23,-25.55,-52,564,-936,30.2,20.0,4.7,30.1,1.1,-30.6,5.73,2.33,-26.5,33.5
2012-08-09 01:09:00,0.0,1.8911,0.0009,381.31,0.26,238.8,31.1,137.98,34.97,24.65,36.39,0.99,18.26,-25.55,-52,564,-935,30.2,19.3,4.3,30.1,1.1,-30.5,5.73,2.33,-26.5,33.4
2012-08-09 01:10:00,0.0,1.8911,0.0009,381.20,0.33,233.4,35.3,137.98,34.97,24.65,36.40,0.97,18.29,-25.55,-52,564,-936,30.2,19.7,4.5,30.1,1.1,-30.6,5.73,2.35,-26.5,33.5
2012-08-09 01:11:00,0.0,1.8909,0.0009,380.97,0.34,246.6,30.3,137.98,34.97,24.65,36.40,0.97,18.31,-25.54,-52,564,-935,30.2,19.7,4.5,30.1,1.1,-30.5,5.73,2.35,-26.4,33.6
2012-08-09 01:12:00,0.0,1.8906,0.0008,381.46,0.34,242.7,26.7,137.98,34.97,24.65,36.40,0.97,18.35,-25.54,-52,564,-936,30.2,19.1,4.1,30.1,1.1,-30.6,5.73,2.34,-26.4,33.6
2012-08-09 01:13:00,0.0,1.8915,0.0008,381.24,0.29,241.3,29.1,137.98,34.97,24.64,36.40,0.97,18.36,-25.54,-52,564,-935,30.2,19.6,4.5,30.1,1.1,-30.7,5.73,2.33,-26.5,33.6
2012-08-09 01:14:00,0.0,1.8910,0.0010,380.95,0.24,239.1,26.3,137.98,34.97,24.65,36.40,0.96,18.39,-25.54,-52,564,-936,30.2,19.9,4.7,30.1,1.1,-30.8,5.73,2.33,-26.4,33.5
2012-08-09 01:15:00,0.0,1.8922,0.0014,380.55,0.30,237.2,29.2,137.98,34.97,24.64,36.40,0.96,18.41,-25.54,-52,564,-935,30.2,20.5,5.1,30.1,1.1,-30.5,5.73,2.35,-26.4,33.5
2012-08-09 01:16:00,0.0,1.8928,0.0009,380.78,0.29,236.9,27.3,137.98,34.98,24.65,36.40,0.96,18.43,-25.54,-52,564,-936,30.2,20.2,4.9,30.1,1.1,-30.7,5.73,2.35,-26.5,33.5
2012-08-09 01:17:00,0.0,1.8941,0.0010,380.57,0.31,239.9,25.4,137.98,34.98,24.65,36.40,0.95,18.46,-25.54,-52,564,-935,30.2,20.9,5.4,30.1,1.1,-30.6,5.73,2.33,-26.4,33.5
2012-08-09 01:18:00,0.0,1.8953,0.0012,380.30,0.28,241.8,25.5,137.98,34.98,24.65,36.40,0.96,18.47,-25.54,-52,564,-935,30.2,21.2,5.6,30.1,1.1,-30.7,5.73,2.33,-26.4,33.4
2012-08-09 01:19:00,0.0,1.8930,0.0017,380.60,0.46,242.8,27.3,137.98,34.98,24.65,36.40,0.95,18.49,-25.53,-52,564,-936,30.2,20.2,4.9,30.1,1.1,-31.1,5.73,2.35,-26.4,33.4
2012-08-09 01:20:00,0.0,1.8920,0.0013,380.73,0.41,239.0,25.8,137.98,34.98,24.65,36.41,0.96,18.51,-25.54,-52,564,-935,30.2,20.6,5.2,30.1,1.1,-30.6,5.73,2.35,-26.4,33.4
2012-08-09 01:21:00,0.0,1.8932,0.0009,380.69,0.28,233.3,28.1,137.98,34.98,24.65,36.40,0.96,18.52,-25.53,-52,564,-936,30.2,20.6,5.2,30.1,1.1,-30.5,5.73,2.33,-26.4,33.5
2012-08-09 01:22:00,0.0,1.8932,0.0012,380.75,0.40,236.4,32.1,137.98,34.98,24.64,36.40,0.96,18.54,-25.53,-52,564,-935,30.2,20.2,4.9,30.1,1.1,-30.6,5.73,2.33,-26.4,33.4
2012-08-09 01:23:00,0.0,1.8932,0.0011,380.82,0.30,235.9,24.8,137.98,34.98,24.65,36.40,0.97,18.55,-25.53,-52,564,-936,30.2,20.0,4.7,30.1,1.1,-30.6,5.73,2.34,-26.4,33.5
2012-08-09 01:24:00,0.0,1.8912,0.0011,381.16,0.27,244.6,30.2,137.98,34.98,24.64,36.40,0.96,18.58,-25.53,-52,564,-935,30.2,19.7,4.5,30.1,1.1,-30.8,5.73,2.35,-26.4,33.5
2012-08-09 01:25:00,0.0,1.8925,0.0010,380.79,0.37,230.0,32.5,137.98,34.98,24.65,36.40,0.98,18.58,-25.52,-52,564,-936,30.2,20.3,4.9,30.1,1.1,-30.7,5.73,2.34,-26.4,33.5
2012-08-09 01:26:00,0.0,1.8920,0.0016,380.99,0.33,237.0,28.8,137.98,34.99,24.65,36.40,0.96,18.60,-25.53,-52,564,-935,30.2,19.6,4.4,30.1,1.1,-31.0,5.73,2.33,-26.4,33.5
2012-08-09 01:27:00,0.0,1.8913,0.0014,381.14,0.43,241.8,26.9,137.98,34.99,24.65,36.40,1.18,18.05,-25.53,-52,564,-936,30.2,20.4,5.0,30.1,1.1,-30.7,5.73,2.33,-26.4,33.4
2012-08-09 01:28:00,0.0,1.8940,0.0010,380.32,0.32,248.4,30.6,137.98,34.99,24.65,36.40,1.13,16.12,-25.53,-52,564,-935,30.2,21.3,5.6,30.1,1.1,-30.5,5.73,2.35,-26.4,33.5
2012-08-09 01:29:00,0.0,1.8932,0.0011,380.58,0.29,242.3,28.9,137.98,34.99,24.65,36.40,1.01,13.81,-25.53,-52,564,-936,30.2,20.5,5.1,30.1,1.1,-31.0,5.73,2.35,-26.4,33.4
2012-08-09 01:30:00,0.0,1.8916,0.0009,381.02,0.32,247.3,31.9,137.98,34.99,24.65,36.39,1.01,11.45,-25.55,-52,564,-935,30.2,20.3,5.0,30.1,1.1,-30.6,5.73,2.33,-26.4,33.4
2012-08-09 01:31:00,0.0,1.8927,0.0012,380.46,0.30,242.0,28.1,137.98,35.00,24.65,36.40,1.13,9.16,-25.56,-52,564,-936,30.2,20.8,5.3,30.1,1.1,-30.6,5.73,2.33,-26.4,33.4
2012-08-09 01:32:00,0.0,1.8924,0.0014,380.81,0.37,250.5,29.1,137.98,35.00,24.65,36.40,1.04,6.97,-25.56,-52,564,-935,30.2,20.4,5.0,30.2,1.1,-30.9,5.73,2.34,-26.4,33.4
2012-08-09 01:33:00,0.0,1.8935,0.0010,380.60,0.28,238.3,29.6,137.98,35.00,24.65,36.40,1.04,4.90,-25.55,-52,564,-936,30.2,20.5,5.1,30.1,1.1,-30.6,5.73,2.35,-26.4,33.4
2012-08-09 01:34:00,0.0,1.8934,0.0009,380.56,0.30,242.9,26.9,137.98,35.00,24.65,36.41,1.10,2.93,-25.54,-52,564,-935,30.2,20.1,4.8,30.2,1.1,-30.7,5.73,2.34,-26.4,33.4
2012-08-09 01:35:00,0.0,1.8911,0.0010,381.14,0.27,247.9,26.3,137.98,35.01,24.65,36.40,1.08,1.05,-25.53,-52,564,-936,30.3,19.7,4.6,30.2,1.1,-30.7,5.73,2.32,-26.4,33.4
2012-08-09 01:36:00,0.0,1.8918,0.0009,380.92,0.29,243.1,26.1,137.98,35.01,24.65,36.40,1.03,-0.72,-25.51,-52,564,-935,30.2,19.8,4.6,30.2,1.1,-30.7,5.73,2.34,-26.4,33.4
2012-08-09 01:37:00,0.0,1.8910,0.0012,381.11,0.27,247.4,29.3,137.98,35.01,24.65,36.40,1.10,-2.38,-25.50,-52,564,-936,30.2,19.6,4.5,30.2,1.1,-30.5,5.73,2.35,-26.3,33.4
2012-08-09 01:38:00,0.0,1.8917,0.0017,380.81,0.36,246.6,31.5,137.98,35.01,24.65,36.40,1.06,-3.63,-25.48,-52,564,-935,30.3,20.4,5.1,30.2,1.1,-30.6,5.73,2.34,-26.3,33.4
2012-08-09 01:39:00,0.0,1.8929,0.0010,380.65,0.31,244.5,29.9,137.98,35.01,24.65,36.40,1.02,-4.93,-25.47,-52,564,-936,30.3,20.2,5.0,30.2,1.1,-30.5,5.73,2.32,-26.3,33.5
2012-08-09 01:40:00,0.0,1.8921,0.0009,380.94,0.32,251.0,28.8,137.98,35.02,24.64,36.40,1.10,-5.48,-25.46,-52,564,-935,30.3,20.0,4.8,30.2,1.1,-30.4,5.73,2.33,-26.3,33.5
2012-08-09 01:41:00,0.0,1.8920,0.0010,380.91,0.25,247.7,27.4,137.97,35.02,24.65,36.40,1.09,-7.14,-25.45,-52,564,-936,30.3,20.3,5.0,30.2,1.1,-30.4,5.73,2.35,-26.3,33.5
2012-08-09 01:42:00,0.0,1.8932,0.0012,380.61,0.36,246.7,29.9,137.97,35.02,24.65,36.40,1.01,-8.48,-25.43,-52,564,-935,30.3,20.2,4.9,30.2,1.1,-30.4,5.73,2.35,-26.3,33.5
2012-08-09 01:43:00,0.0,1.8907,0.0012,381.17,0.34,250.2,32.3,137.98,35.02,24.65,36.39,1.05,-9.63,-25.43,-52,564,-936,30.3,19.8,4.6,30.2,1.1,-30.4,5.73,2.32,-26.3,33.5
2012-08-09 01:44:00,0.0,1.8907,0.0012,381.13,0.35,252.3,27.5,137.97,35.02,24.64,36.39,1.33,-30.13,-44.46,-52,564,-935,30.3,19.3,4.3,30.2,1.1,-30.6,5.42,2.40,-30.6,33.5
2012-08-09 01:45:00,0.0,1.8900,0.0009,381.24,0.27,249.9,28.0,137.98,35.02,24.65,36.39,1.05,-11.83,-25.41,-52,564,-936,30.3,19.6,4.5,30.2,1.1,-30.8,5.73,2.34,-26.3,33.5
2012-08-09 01:46:00,0.0,1.8899,0.0012,380.85,0.33,251.2,34.3,137.98,35.03,24.65,36.40,1.00,-12.83,-25.42,-52,564,-935,30.3,20.3,5.0,30.2,1.0,-31.3,5.73,2.35,-26.3,33.5
2012-08-09 01:47:00,0.0,1.8917,0.0011,380.59,0.26,250.3,25.8,137.98,35.03,24.65,36.40,1.07,-13.75,-25.41,-52,564,-936,30.3,20.6,5.2,30.2,1.1,-31.0,5.73,2.33,-26.3,33.5
2012-08-09 01:48:00,0.0,1.8930,0.0009,380.45,0.29,261.6,30.4,137.98,35.03,24.65,36.40,1.11,-14.64,-25.41,-52,564,-935,30.3,20.6,5.2,30.2,1.1,-31.2,5.73,2.32,-26.3,33.5
2012-08-09 01:49:00,0.0,1.8921,0.0011,380.42,0.36,247.7,27.1,137.97,35.03,24.64,36.40,1.02,-15.46,-25.41,-52,564,-936,30.3,20.8,5.4,30.2,1.1,-31.2,5.73,2.33,-26.3,33.6
2012-08-09 01:50:00,0.0,1.8899,0.0011,380.90,0.47,251.4,28.2,137.97,35.04,24.65,36.41,1.00,-16.23,-25.41,-52,564,-935,30.3,19.1,4.2,30.2,1.1,-31.1,5.73,2.35,-26.3,33.5
2012-08-09 01:51:00,0.0,1.8895,0.0012,381.20,0.39,247.2,26.9,137.97,35.04,24.65,36.39,1.07,-16.96,-25.42,-52,564,-936,30.3,20.0,4.8,30.2,1.0,-31.4,5.73,2.33,-26.3,33.5
2012-08-09 01:52:00,0.0,1.8911,0.0015,380.86,0.46,255.9,28.8,137.98,35.04,24.65,36.40,1.10,-17.65,-25.42,-52,564,-935,30.3,19.2,4.2,30.2,1.1,-31.2,5.73,2.32,-26.2,33.5
2012-08-09 01:53:00,0.0,1.8896,0.0009,381.31,0.30,252.9,26.4,137.97,35.05,24.64,36.39,1.02,-18.30,-25.42,-52,564,-936,30.3,19.2,4.2,30.2,1.1,-30.9,5.73,2.33,-26.3,33.5
2012-08-09 01:54:00,0.0,1.8887,0.0011,381.38,0.27,263.1,35.6,137.97,35.05,24.65,36.40,1.02,-18.91,-25.43,-52,565,-935,30.3,19.0,4.1,30.2,1.1,-31.1,5.73,2.34,-26.2,33.6
2012-08-09 01:55:00,0.0,1.8900,0.0009,381.20,0.34,257.4,32.7,137.97,35.05,24.65,36.40,1.09,-19.50,-25.44,-52,565,-936,30.3,19.0,4.1,30.2,1.0,-31.4,5.73,2.34,-26.2,33.6
2012-08-09 01:56:00,0.0,1.8892,0.0010,381.50,0.26,250.9,28.8,137.97,35.06,24.65,36.40,1.07,-20.04,-25.45,-52,564,-936,30.3,18.8,3.9,30.2,1.1,-31.0,5.73,2.31,-26.2,33.6
2012-08-09 01:57:00,0.0,1.8890,0.0008,381.57,0.36,249.2,25.0,137.97,35.06,24.65,36.40,1.01,-20.57,-25.46,-52,565,-936,30.3,18.7,3.9,30.3,1.0,-31.4,5.73,2.32,-26.2,33.6
2012-08-09 01:58:00,0.0,1.8895,0.0013,381.27,0.37,245.4,28.6,137.97,35.06,24.65,36.40,1.00,-21.07,-25.46,-52,565,-936,30.3,19.6,4.6,30.2,1.0,-31.4,5.73,2.34,-26.2,33.6
2012-08-09 01:59:00,0.0,1.8904,0.0011,381.00,0.34,256.2,28.9,137.97,35.07,24.65,36.40,1.09,-21.55,-25.46,-52,565,-935,30.3,19.4,4.4,30.2,1.0,-31.4,5.73,2.33,-26.2,33.6
2012-08-09 02:00:00,0.0,1.8897,0.0012,381.00,0.32,251.8,28.1,137.97,35.07,24.65,36.40,1.08,-22.00,-25.48,-52,565,-936,30.4,19.6,4.6,30.3,1.0,-31.5,5.73,2.32,-26.2,33.6
2012-08-09 02:01:00,0.0,1.8892,0.0009,381.24,0.29,256.2,27.1,137.97,35.07,24.65,36.40,1.01,-22.42,-25.49,-52,565,-935,30.3,19.0,4.1,30.3,1.0,-31.3,5.73,2.32,-26.2,33.6
2012-08-09 02:02:00,0.0,1.8888,0.0010,381.51,0.29,262.5,31.2,137.97,35.08,24.65,36.40,1.02,-22.82,-25.49,-52,565,-936,30.4,18.5,3.7,30.3,1.0,-31.6,5.73,2.34,-26.2,33.6
2012-08-09 02:03:00,0.0,1.8882,0.0010,381.36,0.27,257.8,30.7,137.97,35.08,24.65,36.40,1.06,-23.19,-25.50,-52,565,-935,30.4,19.2,4.3,30.3,1.0,-31.3,5.73,2.34,-26.2,33.6
2012-08-09 02:04:00,0.0,1.8895,0.0009,380.84,0.32,258.8,26.3,137.97,35.08,24.64,36.40,1.09,-23.56,-25.51,-52,565,-936,30.4,19.7,4.7,30.3,1.0,-31.5,5.73,2.31,-26.2,33.6
2012-08-09 02:05:00,0.0,1.8905,0.0013,380.93,0.39,258.8,24.8,137.97,35.09,24.65,36.39,1.03,-23.89,-25.52,-52,565,-935,30.4,20.1,4.9,30.3,1.0,-31.4,5.73,2.31,-26.2,33.6
2012-08-09 02:06:00,0.0,1.8928,0.0008,380.79,0.33,254.7,27.4,137.97,35.09,24.65,36.40,0.99,-24.20,-25.53,-52,565,-936,30.3,19.8,4.7,30.3,1.0,-31.2,5.73,2.34,-26.2,33.7
2012-08-09 02:07:00,0.0,1.8918,0.0010,380.96,0.30,256.6,29.4,137.97,35.09,24.65,36.40,1.05,-24.49,-25.54,-52,565,-935,30.3,19.5,4.5,30.3,1.0,-31.4,5.73,2.34,-26.2,33.7
2012-08-09 02:08:00,0.0,1.8931,0.0011,380.70,0.38,259.7,27.2,137.97,35.10,24.65,36.40,1.08,-24.77,-25.56,-52,565,-936,30.4,20.1,5.0,30.3,1.0,-31.2,5.73,2.32,-26.2,33.7
2012-08-09 02:09:00,0.0,1.8933,0.0011,380.68,0.33,263.6,26.3,137.97,35.10,24.65,36.40,1.07,-25.02,-25.56,-52,565,-935,30.4,20.0,4.9,30.3,1.0,-31.3,5.73,2.32,-26.2,33.7
2012-08-09 02:10:00,0.0,1.8916,0.0009,380.54,0.33,259.0,29.5,137.97,35.10,24.65,36.40,0.99,-25.27,-25.57,-52,565,-936,30.4,20.4,5.2,30.3,1.0,-31.4,5.73,2.34,-26.2,33.6
2012-08-09 02:11:00,0.0,1.8920,0.0011,380.52,0.30,261.8,30.5,137.97,35.11,24.65,36.40,1.02,-25.49,-25.58,-52,565,-935,30.4,19.9,4.9,30.3,1.0,-31.5,5.73,2.34,-26.2,33.7
2012-08-09 02:12:00,0.0,1.8916,0.0012,381.01,0.32,256.6,24.9,137.97,35.11,24.65,36.39,1.02,-25.33,-25.58,-52,565,-936,30.4,19.1,4.2,30.4,1.0,-31.3,5.73,2.32,-26.2,33.7
2012-08-09 02:13:00,0.0,1.8889,0.0010,381.56,0.28,262.1,27.5,137.97,35.11,24.65,36.40,1.11,-25.27,-25.59,-52,565,-935,30.4,18.2,3.6,30.3,1.0,-31.5,5.73,2.31,-26.2,33.7
2012-08-09 02:14:00,0.0,1.8889,0.0010,381.53,0.26,266.8,30.5,137.97,35.11,24.65,36.40,1.05,-25.45,-25.61,-52,565,-936,30.4,18.2,3.6,30.3,1.0,-31.4,5.73,2.33,-26.2,33.7
2012-08-09 02:15:00,0.0,1.8881,0.0009,381.51,0.34,260.6,28.7,137.97,35.12,24.65,36.39,0.96,-25.49,-25.62,-52,565,-935,30.4,18.6,3.9,30.4,1.0,-31.5,5.73,2.34,-26.2,33.7
2012-08-09 02:16:00,0.0,1.8896,0.0010,381.12,0.31,266.7,27.9,137.97,35.12,24.65,36.40,1.04,-25.27,-25.62,-52,565,-936,30.4,19.1,4.3,30.4,1.0,-31.6,5.73,2.32,-26.2,33.7
2012-08-09 02:17:00,0.0,1.8908,0.0009,381.32,0.30,269.7,30.5,137.97,35.12,24.65,36.40,1.08,-25.40,-25.63,-52,565,-935,30.4,18.7,4.0,30.4,1.0,-31.5,5.73,2.31,-26.2,33.7
2012-08-09 02:18:00,0.0,1.8910,0.0011,381.25,0.30,266.0,28.4,137.97,35.13,24.65,36.40,1.05,-25.58,-25.64,-52,565,-936,30.5,18.8,4.1,30.4,1.0,-31.5,5.73,2.33,-26.2,33.6
2012-08-09 02:19:00,0.0,1.8903,0.0011,381.20,0.38,273.7,29.4,137.97,35.13,24.65,36.40,1.00,-25.32,-25.64,-52,565,-935,30.4,19.0,4.2,30.4,1.0,-31.7,5.73,2.33,-26.2,33.7
2012-08-09 02:20:00,0.0,1.8910,0.0009,381.11,0.38,264.9,28.5,137.97,35.14,24.65,36.39,0.99,-25.37,-25.66,-52,565,-936,30.5,19.2,4.4,30.4,1.0,-31.4,5.73,2.31,-26.2,33.7